Dewpoint
60 60 60 59 59 59 58 56 55 55 54 54 53 53 53 54 53 53 54 54 54 53 53 52 51 52 51 52 51 52 51 51 53 53 51 50 50 50 49 48 48 49 49 49 50 49 48 47 48 49 49 45 46 47 46 46 46 48 47 44 42 40 38 38 36 37 37 44 41 37 38 35 33 33 33 37 39 43 46 43 44 42 42 41 42
60 60 60 60 59 59 59 57 55 55 54 54 53 53 52 53 54 53 53 54 53 54 52 53 52 51 50 51 53 53 52 52 52 50 51 51 51 51 48 49 49 47 47 46 47 47 46 46 47 49 50 50 49 45 45 42 44 46 46 45 41 41 39 40 38 37 35 40 40 43 41 38 33 34 36 38 38 40 39 42 40 40 39 38 39
60 60 60 60 60 60 59 59 57 55 54 54 54 54 53 54 54 53 54 53 54 54 52 53 53 51 51 52 52 52 53 53 51 51 51 50 51 50 50 46 45 45 46 47 45 47 48 49 48 49 51 47 48 47 47 47 45 46 47 47 46 46 43 38 39 39 37 39 43 40 42 44 37 36 40 41 41 41 38 41 38 39 41 38 36
59 60 60 60 60 60 59 59 58 55 54 54 54 56 56 55 55 54 54 53 53 54 54 53 53 52 52 51 51 52 54 54 52 51 53 53 51 50 49 49 51 50 48 47 47 49 48 47 47 50 50 47 47 50 47 47 47 47 48 49 48 47 49 48 41 41 41 41 42 39 45 45 45 41 41 42 44 42 38 39 40 38 41 40 37
59 60 60 60 60 59 59 58 58 56 54 54 56 55 55 54 54 54 53 51 52 54 53 52 52 53 53 51 52 52 53 53 52 51 53 53 52 53 52 50 51 52 50 48 53 49 49 47 48 50 50 44 49 50 48 48 48 47 46 47 49 50 50 49 48 45 44 42 43 42 44 46 44 41 39 39 38 40 39 40 40 38 41 42 40
59 58 59 59 58 58 59 59 58 57 56 56 55 54 54 53 53 54 53 50 51 53 52 50 52 52 53 51 51 52 51 53 53 53 54 54 53 52 52 53 53 54 52 51 52 52 52 52 50 49 51 50 50 50 50 49 48 48 47 47 48 49 48 46 48 49 45 43 42 43 45 44 44 45 39 39 41 43 43 44 44 45 46 45 43
58 58 57 56 57 57 57 57 57 56 57 57 56 55 53 52 52 52 54 50 50 52 51 49 51 52 51 52 51 53 54 55 54 54 55 56 54 54 55 55 55 56 56 55 55 55 55 55 54 54 53 52 51 50 50 50 50 48 49 48 48 47 47 48 48 47 47 47 47 46 45 46 45 42 41 43 43 43 43 44 43 45 47 44 44
56 57 57 57 57 57 58 57 58 57 57 57 57 56 57 55 52 53 55 53 53 54 50 50 53 53 54 55 55 55 54 54 55 55 56 56 57 56 56 55 55 55 56 56 56 56 55 55 54 54 54 53 52 51 50 49 50 49 49 48 49 48 47 47 48 46 46 47 46 44 47 46 43 44 43 46 44 44 44 44 41 42 43 45 43
56 57 57 57 57 57 57 57 57 56 56 56 56 56 57 57 57 57 56 54 55 53 51 52 54 55 56 56 56 56 56 56 56 56 56 56 57 56 55 55 55 55 55 56 55 56 55 55 56 55 56 55 50 52 53 53 52 51 51 50 49 47 46 47 47 47 47 46 46 46 45 46 45 43 44 44 43 43 44 45 43 44 44 43 44
57 56 56 57 57 57 57 57 58 58 57 56 56 56 56 56 56 57 57 57 57 57 57 56 56 56 56 55 55 56 56 55 52 49 51 54 56 57 55 55 55 55 55 54 53 54 55 56 57 58 54 53 49 45 45 47 50 51 50 50 51 50 49 47 48 47 46 46 45 45 45 45 45 45 44 44 45 44 43 43 41 42 42 41 42
56 57 58 58 58 58 56 56 58 58 56 55 54 55 56 56 55 56 56 56 56 57 57 56 56 56 55 54 53 54 55 55 42 40 41 46 54 56 55 55 54 55 54 54 53 53 53 56 55 54 53 53 49 43 41 41 40 40 41 45 48 48 48 47 46 47 46 45 45 45 44 44 45 45 43 43 44 43 42 41 41 42 40 39 38
56 56 57 57 58 58 57 57 58 57 56 55 55 56 56 55 55 55 55 55 55 55 56 56 55 55 55 54 53 53 54 51 41 40 41 42 49 55 55 55 54 54 54 54 53 54 54 55 54 54 54 53 52 48 44 40 39 39 38 37 37 38 43 46 45 44 44 44 44 44 44 43 44 44 43 42 42 42 42 42 41 40 39 38 38
57 57 57 57 57 58 58 57 57 57 57 57 56 56 55 55 55 55 54 55 55 56 55 55 55 55 55 54 54 53 53 49 43 40 40 40 43 51 56 55 55 53 54 54 54 55 54 54 55 55 55 56 55 51 48 45 41 40 40 39 37 37 35 38 42 45 44 44 44 44 44 44 43 42 43 42 43 41 41 41 40 39 39 37 38
55 55 56 56 55 56 58 57 56 56 57 56 56 56 55 55 55 55 54 54 54 54 53 54 54 54 54 54 54 54 53 52 43 41 40 39 39 46 54 55 54 55 55 54 55 55 55 54 54 54 54 55 54 52 50 47 45 44 44 44 41 38 37 35 35 36 41 44 43 43 46 45 44 43 44 43 42 40 39 39 38 37 37 36 38
38 41 49 55 56 56 54 55 55 55 55 56 55 55 55 54 54 53 53 53 53 52 53 52 53 53 53 53 52 53 54 50 44 41 40 40 39 43 51 53 54 54 54 54 54 55 54 54 54 53 53 49 47 50 52 49 48 48 47 47 45 44 43 43 43 45 45 45 44 46 45 44 44 42 41 42 41 40 40 37 37 37 37 38 36
36 37 37 39 43 48 54 53 52 54 55 55 55 55 54 53 52 53 52 52 52 52 52 51 52 52 52 52 51 50 52 44 41 41 40 39 39 47 51 52 53 53 53 53 54 54 55 54 53 53 49 44 42 44 49 50 49 49 48 44 41 38 37 38 37 40 43 43 41 40 39 41 40 38 39 39 40 39 39 37 37 37 35 33 32
37 36 36 36 39 43 45 45 45 44 46 50 53 53 53 53 52 52 53 51 52 52 52 51 52 52 51 51 51 52 52 45 39 40 40 39 42 49 51 52 53 52 52 50 48 47 48 52 53 50 45 42 39 39 44 48 51 50 48 44 41 38 35 36 36 36 36 37 37 36 35 35 35 35 35 38 39 37 34 31 32 34 32 31 33
38 36 35 35 36 41 43 43 43 43 43 45 48 51 52 53 54 53 52 52 52 53 52 51 51 52 51 51 53 52 52 48 39 40 39 39 44 50 51 52 51 50 49 46 45 45 48 52 51 45 43 41 37 39 43 47 49 49 48 45 42 40 38 38 38 35 36 35 35 34 34 34 34 34 33 33 35 37 31 30 34 33 32 33 31
40 37 36 36 36 41 41 43 42 42 42 43 44 45 47 50 51 52 52 52 52 51 53 52 50 50 51 52 53 53 52 50 41 39 39 38 43 49 51 50 47 49 47 45 43 43 42 44 46 43 42 40 37 40 43 45 46 46 48 45 43 41 40 39 39 37 37 37 36 36 36 35 36 33 36 35 35 37 35 33 35 33 32 33 34
43 40 39 38 38 39 40 42 41 41 42 42 43 44 45 45 47 51 52 53 53 53 52 52 51 52 52 52 52 53 52 49 42 38 39 39 40 46 47 46 46 48 46 43 42 40 39 39 39 37 36 37 38 39 40 41 44 45 46 45 44 42 43 42 40 38 38 39 39 38 38 38 36 35 36 36 37 38 34 35 35 35 35 35 35
40 41 40 40 41 38 37 39 39 41 43 43 45 45 43 43 43 43 44 45 47 50 51 51 51 51 51 52 52 51 51 48 43 37 38 39 39 41 44 44 44 48 47 44 42 40 38 38 38 37 36 36 37 37 37 38 39 41 41 41 40 41 41 38 39 41 40 39 39 40 39 39 39 38 38 38 38 36 36 34 37 37 37 36 32
38 38 37 37 37 38 38 38 38 42 42 45 44 44 44 44 44 44 43 43 42 43 45 48 49 49 49 50 50 50 50 47 44 38 38 38 38 38 43 46 46 47 47 45 42 40 38 37 37 36 35 35 35 36 36 35 35 35 33 33 34 35 37 39 39 38 38 38 38 38 38 37 35 35 36 36 37 39 36 36 37 37 38 34 33
37 37 38 38 38 39 39 38 38 41 40 40 41 41 42 44 44 42 41 40 40 40 41 42 43 45 45 46 48 49 49 46 42 40 37 37 37 36 38 40 39 44 46 45 42 40 38 37 38 37 35 35 35 34 34 33 34 32 33 32 32 33 37 37 37 37 37 37 36 34 33 34 34 35 35 34 35 35 34 35 35 35 34 35 35
36 37 37 38 38 38 37 37 37 36 36 36 36 37 37 39 41 41 40 39 39 38 39 40 41 41 41 43 45 45 45 45 42 40 39 37 37 37 37 36 36 41 45 46 42 39 37 37 37 35 35 34 34 33 33 33 31 32 32 33 33 35 37 36 36 36 33 33 33 33 33 34 34 33 33 34 34 33 35 35 34 33 33 33 33
35 36 36 36 36 35 37 37 37 37 36 36 35 35 36 38 37 38 39 39 39 39 39 39 39 40 40 40 41 44 44 44 42 38 37 37 37 37 35 36 36 39 44 44 41 39 36 35 35 34 34 34 33 32 32 33 32 33 33 35 38 35 36 35 33 33 32 31 31 32 33 32 32 32 33 33 33 33 32 33 33 33 32 32 32
35 35 35 35 35 34 34 35 35 35 36 35 36 36 35 35 34 34 34 35 35 36 37 38 39 40 42 42 44 44 45 46 43 40 39 38 36 36 36 36 37 38 38 39 37 35 35 34 34 33 33 33 32 31 29 31 33 33 34 36 35 35 33 31 31 30 30 30 32 32 31 32 32 32 32 32 32 32 32 32 31 31 31 31 30
35 35 34 34 34 34 33 34 34 34 34 35 35 36 35 34 34 33 34 35 38 38 38 39 39 41 44 45 45 45 44 45 45 44 43 42 39 38 37 37 37 36 36 35 36 34 34 34 33 33 34 34 33 33 32 32 31 31 32 33 33 34 32 30 29 31 30 31 31 31 31 31 32 31 30 31 31 31 31 31 30 29 31 30 30
34 34 34 34 34 34 34 33 34 34 34 34 34 34 34 35 34 34 34 37 37 37 38 37 36 38 40 42 42 43 44 44 44 44 45 44 42 42 42 40 37 36 35 35 35 35 33 34 35 35 34 32 31 30 30 31 30 30 31 32 32 33 34 35 35 33 33 32 31 30 28 30 30 29 30 31 29 30 30 30 30 29 29 30 29
34 34 34 34 34 34 34 34 34 34 34 34 34 34 33 34 34 33 33 36 36 35 34 33 36 37 40 39 38 37 38 41 44 42 41 42 40 43 42 41 40 39 37 35 35 36 36 36 33 35 32 30 30 30 29 29 30 31 34 32 32 32 32 31 32 30 30 29 28 28 26 28 28 29 29 29 29 29 28 28 28 28 30 30 30
34 34 34 34 34 34 34 34 34 34 34 34 34 34 33 34 34 34 34 34 34 34 33 33 35 35 35 39 38 36 37 41 39 42 42 41 40 40 40 39 37 38 36 34 35 33 32 32 34 33 32 31 31 30 30 30 30 30 28 30 30 28 29 30 29 28 27 27 27 26 26 26 27 27 28 27 27 27 28 30 27 29 30 30 31
35 34 34 34 34 34 34 34 34 34 34 34 34 34 34 34 34 34 35 35 35 34 34 34 34 34 35 35 39 38 37 37 37 39 40 40 39 39 39 37 36 35 34 33 33 32 33 33 33 33 33 33 32 32 32 31 31 30 29 29 28 28 29 28 27 27 27 26 26 26 26 26 27 26 27 27 27 27 27 28 29 30 31 31 30
34 34 34 34 35 34 34 34 34 34 34 35 35 35 34 34 35 35 35 35 35 35 34 34 34 34 34 35 36 36 36 36 37 39 39 39 39 39 39 36 35 35 34 34 33 33 33 33 33 33 33 33 32 32 32 32 31 31 29 29 28 27 29 28 27 28 27 27 24 25 25 27 27 26 27 27 27 27 27 28 28 29 30 31 31
35 35 35 35 35 34 34 34 35 35 35 36 36 35 34 34 34 35 36 35 35 35 34 34 35 34 34 34 35 35 36 36 35 37 39 39 39 39 39 37 35 35 35 35 35 33 33 33 34 34 33 33 33 32 32 32 31 30 29 30 29 25 27 27 27 28 27 26 25 25 25 27 26 26 27 26 26 26 26 27 28 30 30 31 31
36 36 36 36 36 36 37 37 37 36 36 36 35 35 35 35 34 34 34 35 35 35 35 35 35 35 35 35 34 35 35 35 35 35 36 38 39 39 38 37 36 35 35 35 34 33 34 34 34 34 33 33 32 32 31 30 30 30 29 28 28 27 27 27 28 27 26 26 24 26 26 26 26 25 25 25 25 26 26 28 29 30 31 31 31
37 35 34 35 37 37 37 36 36 36 36 35 35 35 35 35 34 34 34 34 34 34 34 35 35 35 34 35 34 34 34 34 34 34 35 35 36 37 36 36 35 34 36 38 36 36 35 35 35 35 33 31 31 30 29 29 29 28 28 28 26 27 27 28 28 26 26 24 24 25 26 25 25 26 25 24 24 25 27 28 29 30 30 30 31
35 36 37 36 36 35 35 35 35 35 35 35 35 35 35 35 35 35 35 35 34 34 33 34 34 35 35 34 34 34 34 34 34 34 34 34 35 36 36 34 34 35 35 37 38 37 37 36 34 34 32 32 30 30 29 29 29 28 26 26 26 27 28 27 26 25 23 24 25 25 26 27 25 25 24 25 26 26 27 28 29 30 31 31 31
35 36 36 35 35 35 35 34 35 34 33 33 34 34 35 35 35 35 35 35 34 34 34 35 35 34 35 34 34 34 34 34 34 34 34 34 33 34 34 35 34 33 34 35 37 38 38 37 35 33 32 30 29 29 29 29 27 27 28 27 26 27 26 27 26 26 24 25 24 26 25 25 26 26 26 26 27 27 27 28 29 31 31 31 31
35 36 35 35 35 34 34 34 33 33 32 33 33 34 34 35 34 34 34 34 34 34 34 35 35 34 34 36 37 33 32 33 34 33 32 31 30 29 30 31 32 32 31 33 37 38 36 36 38 36 31 30 29 28 28 27 27 27 26 26 26 25 28 28 27 26 24 25 25 26 27 26 25 25 27 26 25 26 27 29 29 30 31 31 31
36 34 33 33 33 34 34 33 33 33 34 34 34 34 33 33 33 34 34 34 34 34 34 34 34 34 36 36 35 35 33 31 28 28 28 28 28 29 30 30 31 32 33 34 36 37 38 38 36 37 34 33 30 29 29 29 29 28 27 25 24 23 23 23 26 25 25 25 26 25 26 24 24 24 25 25 25 25 26 28 30 30 31 31 31
36 35 34 33 34 34 33 33 33 33 33 33 33 33 34 34 34 34 34 34 34 33 33 34 34 35 36 37 34 33 32 30 29 28 29 27 26 28 29 28 31 33 34 36 36 36 37 37 37 35 34 30 29 29 28 28 29 28 27 27 27 28 28 28 27 26 25 26 26 25 24 24 24 24 25 27 27 27 28 30 31 31 31 31 31
34 34 33 33 33 34 33 33 33 33 33 33 33 34 34 34 34 34 34 33 33 33 33 34 35 36 36 34 34 34 32 31 31 30 29 28 29 29 29 29 30 31 32 32 34 35 35 34 32 32 32 31 30 29 29 29 28 27 27 28 29 29 28 27 27 27 26 26 26 24 23 24 24 24 26 28 31 31 30 31 31 31 31 31 31
34 33 33 33 33 33 33 33 33 32 33 32 33 33 33 34 35 34 33 33 33 32 31 32 33 34 34 34 34 34 33 33 32 30 30 30 30 30 31 31 32 31 33 34 34 32 31 30 30 30 29 29 28 27 27 27 27 27 27 28 28 28 28 27 27 26 26 24 24 24 24 25 25 26 26 31 27 30 31 31 31 31 31 31 31
34 33 32 33 33 33 33 33 33 33 32 31 31 32 33 34 34 34 33 33 33 32 31 32 33 34 34 33 32 33 33 34 32 33 32 32 32 31 31 31 32 34 36 36 32 30 28 28 28 28 28 28 28 27 27 27 27 28 28 28 28 27 27 26 26 26 24 24 23 25 24 25 26 26 24 25 27 30 31 31 31 31 31 31 31
33 33 33 33 33 33 33 33 32 32 32 32 32 32 33 34 34 34 34 33 32 32 32 33 33 33 33 33 33 33 33 31 31 31 31 31 31 31 31 31 31 31 30 30 30 29 28 28 28 28 29 28 29 29 29 28 29 29 28 28 28 27 25 24 23 22 22 22 24 24 24 25 26 24 26 29 30 30 30 30 30 31 31 31 31
34 33 33 32 33 33 33 32 32 32 32 32 32 33 33 33 33 33 33 33 33 33 32 32 32 32 32 32 32 31 31 31 31 31 31 31 31 31 31 31 31 30 29 29 29 30 28 28 28 28 28 28 29 29 29 29 29 29 28 27 25 24 22 21 21 22 22 22 23 24 24 24 23 24 25 28 30 30 30 30 31 31 31 31 31
33 33 32 32 32 32 31 30 31 32 33 33 33 33 33 33 33 33 32 33 33 33 33 33 33 33 32 32 32 32 31 31 31 31 31 31 31 31 31 30 30 30 29 28 29 29 29 29 29 29 29 29 29 29 29 28 28 27 26 25 24 23 22 22 22 22 22 22 22 23 24 24 23 25 28 28 30 30 30 31 31 31 31 31 31
33 32 32 33 33 32 32 32 30 31 31 32 33 33 32 32 32 33 32 32 33 33 33 33 33 33 33 32 32 32 32 32 32 31 32 31 31 31 31 31 30 30 30 30 30 29 30 30 30 30 30 30 30 29 29 28 26 26 25 25 26 26 25 25 24 24 23 24 24 23 23 24 24 25 28 29 30 30 30 31 31 31 31 31 31
33 31 31 32 33 32 33 33 32 32 32 32 32 31 31 31 31 32 33 33 33 33 33 33 33 33 33 33 33 32 32 32 33 32 32 32 32 32 32 31 30 30 30 30 30 30 30 30 30 30 30 30 29 29 29 28 27 26 26 26 26 26 26 26 27 28 27 26 26 25 24 23 23 24 28 29 29 30 30 31 31 31 31 31 31
32 31 31 32 31 31 31 32 32 32 31 31 32 33 32 31 31 31 33 33 33 33 33 33 33 33 33 32 32 33 33 32 33 33 33 32 32 32 32 32 31 31 30 30 30 30 30 30 30 30 30 29 29 28 28 28 27 27 26 26 25 25 26 26 26 26 27 27 28 27 25 23 22 24 27 28 29 30 31 31 31 31 31 31 31
30 30 31 31 31 30 31 31 31 31 31 31 30 31 32 33 32 31 31 32 33 33 33 32 32 32 32 32 31 31 32 32 32 32 32 32 32 32 32 32 31 31 30 30 30 30 30 30 29 29 28 27 27 27 27 26 26 26 24 24 25 24 25 25 26 26 26 26 27 27 27 26 24 24 25 26 27 29 31 31 31 31 31 30 29
28 29 29 29 29 30 31 30 30 30 30 31 31 31 31 31 32 32 32 31 32 32 33 33 32 32 32 32 32 32 31 31 31 32 32 32 32 32 31 31 31 31 31 31 30 30 29 28 27 27 27 26 26 25 25 24 23 22 23 23 23 23 23 23 21 23 23 24 23 25 26 26 26 25 26 26 27 29 31 31 31 31 31 31 30